GEFSMA_500_meanwind_216.txt.gz
Wind_Speed
5 5 5 5 5 5 5 5 5 4 4 4 4 4 3 3 4 3 3 3 3 3 3 3 3 3 3 3 3 3 4 4 4 4 5 5 6 6 6 6 6 6 6
5 4 4 4 4 4 4 4 5 5 5 5 5 4 4 4 4 4 4 4 4 4 4 4 4 4 4 4 4 4 4 4 5 5 5 6 7 7 7 7 7 7 8
4 3 3 3 3 3 3 4 5 5 5 5 6 6 6 5 5 5 5 5 5 5 6 6 6 6 6 6 5 5 5 6 6 6 7 7 8 8 8 9 9 9 9
2 2 1 1 2 3 3 3 4 5 5 5 6 7 7 7 6 6 6 6 6 6 6 7 7 7 7 7 7 7 7 8 8 8 8 9 9 10 10 10 10 10 11
2 1 1 0 1 2 3 4 4 5 5 6 6 7 8 8 7 7 7 7 7 7 8 8 7 8 8 8 9 9 9 9 10 10 10 10 11 11 12 12 11 11 12
2 1 1 1 1 3 3 4 5 6 6 6 6 7 7 8 8 8 9 9 9 9 9 9 9 9 9 10 10 11 11 11 12 12 12 12 12 12 13 13 13 13 13
3 2 3 3 3 3 5 5 5 7 7 7 7 7 7 8 8 9 10 10 11 10 10 10 10 10 11 11 11 12 13 13 13 13 14 14 14 14 14 15 14 15 14
3 3 3 3 4 4 4 5 5 6 7 8 8 8 8 8 9 9 10 11 11 12 12 12 13 12 12 13 13 13 14 14 14 15 15 16 16 16 16 16 16 17 16
4 3 3 4 4 5 6 6 6 6 8 8 9 9 9 10 10 10 10 11 12 12 13 13 13 13 14 14 14 14 14 14 15 16 16 16 17 17 17 17 17 17 17
4 4 4 5 5 6 6 6 7 7 7 7 9 9 10 10 11 10 11 12 13 13 13 13 14 14 14 14 14 15 15 16 16 17 17 18 18 18 18 18 18 18 19
5 5 5 5 5 6 6 6 7 7 7 8 8 9 9 10 10 11 12 13 12 13 13 13 14 14 14 15 15 16 16 16 16 17 18 18 19 19 19 19 20 20 20
6 6 6 5 6 6 7 7 7 7 8 9 9 9 10 11 11 12 12 13 13 13 13 13 14 14 15 16 17 16 16 17 18 18 19 20 20 20 20 20 20 20 20
7 7 7 6 6 7 7 7 7 7 8 9 9 10 10 10 11 11 11 12 12 13 13 13 13 15 16 17 17 17 17 18 19 19 20 21 21 21 22 22 22 21 21
8 8 8 8 8 8 8 8 8 8 9 9 9 10 10 10 10 11 11 12 12 13 13 14 15 15 16 17 17 18 19 19 20 21 21 22 23 23 23 23 23 23 23
9 9 10 10 9 9 10 9 9 9 9 10 10 10 11 12 12 13 13 13 13 14 14 15 16 16 17 18 18 19 20 20 21 22 22 23 24 24 24 24 24 23 24
11 11 11 11 11 11 11 11 11 11 11 10 11 11 12 13 13 14 15 15 15 15 15 16 16 17 18 19 20 21 21 22 23 23 24 24 25 25 25 25 26 26 26
14 14 13 13 13 13 12 12 13 13 13 13 13 13 14 15 15 15 16 17 17 17 16 17 18 19 20 21 22 22 23 23 24 25 25 25 25 26 26 26 27 27 27
17 17 16 16 15 15 15 15 14 14 15 15 15 15 16 17 17 18 18 19 19 19 19 19 20 21 21 23 23 23 24 25 25 26 26 26 27 27 28 28 27 27 27
20 20 20 19 18 18 17 17 17 17 17 17 18 18 19 19 19 20 20 20 21 21 22 22 22 23 24 24 25 25 26 26 26 27 27 27 28 28 28 29 28 28 28
21 21 21 21 21 20 20 20 19 19 20 20 20 20 21 21 20 21 21 22 22 23 23 24 24 24 25 26 26 26 26 26 26 27 27 28 28 29 29 29 29 29 29
22 22 21 22 22 21 21 21 21 21 21 22 22 23 23 23 22 22 23 23 24 24 24 25 25 25 25 26 26 27 27 27 27 27 27 27 27 28 29 29 29 29 29
23 23 22 21 22 22 22 23 23 23 23 23 24 25 25 24 24 24 25 25 25 25 25 26 26 26 26 27 27 27 27 27 27 28 27 27 28 28 29 29 29 30 30
25 25 25 24 24 24 24 24 24 24 24 24 24 25 25 25 26 26 27 27 28 28 27 27 27 27 27 28 28 28 28 28 29 29 29 28 29 28 28 28 29 29 29
26 26 26 26 27 26 26 26 25 25 24 25 25 24 26 27 27 28 28 29 29 28 28 29 29 30 30 30 30 30 31 31 30 30 29 29 29 29 29 29 29 29 30
26 26 26 27 27 27 27 27 27 26 26 27 27 27 27 28 29 29 29 30 30 30 30 30 31 31 30 30 30 30 31 31 31 30 30 30 30 30 30 30 30 30 31
27 26 26 26 27 27 27 28 28 28 28 28 29 29 29 30 30 31 31 31 31 31 32 32 31 31 31 31 31 31 31 31 31 30 30 30 30 31 31 31 31 32 32

GEFSMA_500_meanwind_222.txt.gz
Wind_Speed
7 7 7 7 7 7 8 8 8 9 9 8 8 7 6 6 5 5 4 4 4 4 4 4 4 4 4 4 4 4 5 5 5 5 5 5 6 6 6 6 6 6 6
5 5 6 6 6 7 7 6 7 8 8 8 8 7 7 6 6 6 5 5 5 5 5 5 5 5 6 5 5 5 6 6 6 6 6 6 7 7 7 7 7 8 8
3 4 4 5 6 6 6 6 6 6 7 7 7 7 7 6 6 6 6 6 6 6 7 7 7 6 6 7 7 7 7 7 7 7 7 8 8 9 9 9 9 9 10
2 3 3 4 5 5 5 6 6 6 6 7 8 8 7 7 7 7 7 7 7 7 7 7 7 7 8 8 9 9 8 9 9 9 9 9 10 10 10 10 11 11 11
2 3 3 3 3 4 5 6 6 6 6 7 8 8 8 8 8 8 8 8 8 8 8 8 8 9 9 9 9 9 9 9 10 10 11 11 11 11 12 12 12 12 12
1 0 1 2 3 4 4 6 6 7 7 8 9 9 9 9 10 9 9 10 10 9 9 9 10 10 10 10 10 10 10 10 11 11 12 12 12 13 13 13 13 13 13
3 2 2 2 3 4 5 6 7 8 8 8 9 10 10 10 10 9 9 10 10 11 11 11 11 11 11 11 11 11 12 12 12 12 13 13 14 14 14 14 14 14 14
4 3 3 3 4 5 6 7 7 8 9 9 9 11 11 11 11 11 10 10 10 11 11 12 12 12 12 12 12 12 13 13 13 13 13 14 15 15 15 15 15 15 15
5 4 4 4 5 5 6 7 8 8 9 9 9 10 11 12 12 12 12 11 11 11 12 12 12 12 13 13 14 14 14 14 14 14 14 15 15 15 15 15 16 16 17
5 5 5 5 5 5 6 6 8 8 9 9 10 10 11 12 12 12 12 12 12 12 12 13 13 13 14 14 14 14 15 15 14 15 15 16 16 16 16 17 17 17 18
6 6 6 6 6 6 7 7 7 7 7 8 8 9 9 10 11 11 11 12 12 13 13 13 14 14 14 14 15 15 15 15 16 16 15 16 16 16 17 18 18 19 19
7 7 7 8 8 8 8 8 8 8 8 8 9 9 10 10 11 11 11 12 12 12 13 13 14 14 15 16 16 16 16 16 16 16 16 16 17 18 18 19 19 20 20
9 9 9 9 9 9 9 9 9 9 9 9 9 9 10 11 11 12 12 12 12 13 13 13 13 14 14 15 16 16 16 16 16 17 17 18 19 19 20 20 20 20 21
10 11 11 11 11 11 11 10 10 10 10 10 11 11 11 11 12 12 12 12 13 13 13 13 14 14 14 15 16 16 17 18 18 19 19 20 20 20 21 21 21 22 22
11 11 12 12 12 12 12 12 12 12 12 12 12 13 13 13 13 13 13 13 13 14 15 15 15 16 16 16 16 17 18 19 19 20 21 22 22 22 22 22 22 23 24
13 13 13 13 13 13 14 15 15 15 15 14 15 15 15 15 15 15 15 15 15 16 16 16 17 17 18 18 18 18 19 19 20 21 22 23 23 24 24 24 24 25 26
15 14 14 15 14 15 16 17 17 17 17 17 17 17 17 17 17 17 17 17 17 17 17 17 18 18 19 20 20 20 21 21 22 22 23 23 24 24 25 25 25 25 26
17 16 16 16 17 17 18 18 18 18 18 18 18 19 19 19 20 19 19 20 20 19 19 18 19 19 20 21 21 22 22 22 23 24 24 24 25 25 26 26 26 26 27
19 19 19 19 19 19 19 19 19 20 20 20 20 20 21 21 22 22 22 22 22 22 21 21 21 22 22 22 23 23 24 24 25 25 25 26 26 27 27 27 27 27 27
22 21 22 22 21 21 21 20 21 22 22 22 22 22 22 22 22 23 23 23 23 24 24 24 24 24 24 25 25 26 26 26 26 27 27 27 27 28 28 28 28 28 28
24 24 24 23 23 23 23 22 23 24 24 24 24 23 23 23 24 24 24 24 25 25 25 25 26 26 26 26 27 27 27 27 27 28 28 28 28 28 29 29 28 28 28
26 25 25 24 24 24 24 24 24 25 25 26 26 25 26 26 26 26 26 26 26 26 26 27 27 28 28 28 28 28 28 28 28 29 29 29 28 28 28 28 28 28 28
26 26 25 25 25 24 25 25 25 26 26 26 26 26 27 27 27 27 27 27 27 28 28 29 29 29 29 30 30 30 30 30 29 29 30 29 29 29 28 28 27 27 28
27 27 26 27 26 26 26 27 27 27 26 26 27 27 28 28 28 28 29 29 29 29 29 30 30 30 31 31 31 31 31 31 31 30 30 30 31 30 30 30 29 29 29
28 28 28 28 27 27 27 28 28 29 28 28 28 28 29 29 30 30 31 31 31 31 31 31 30 30 30 31 31 32 32 32 31 30 30 30 30 31 30 30 30 30 30
30 30 29 29 29 29 29 30 30 31 30 29 29 29 30 31 32 32 33 33 33 32 33 32 32 31 31 32 32 32 32 32 32 31 31 32 32 32 31 31 31 32 32

GEFSMA_500_meanwind_228.txt.gz
Wind_Speed
2 3 4 5 5 5 5 6 6 6 6 6 7 6 5 5 4 4 4 4 4 4 4 4 3 4 4 4 4 4 4 5 5 6 6 6 6 6 6 6 6 6 7
2 3 4 4 5 5 5 5 6 6 7 7 7 7 7 6 6 6 6 6 6 6 5 5 5 5 5 5 5 5 5 6 6 6 7 8 8 7 7 7 7 8 8
1 1 2 3 3 4 4 5 6 6 6 7 7 7 7 7 6 7 6 7 7 7 7 6 7 6 6 6 6 6 6 6 6 7 8 8 8 8 8 8 9 9 9
2 1 1 2 2 3 3 4 5 6 7 7 8 8 8 8 7 8 8 8 8 8 8 7 7 7 7 7 8 8 8 8 8 8 8 9 9 9 9 9 10 10 11
2 2 2 2 3 3 4 4 5 6 7 8 8 7 7 8 8 8 8 8 8 8 9 8 8 8 8 9 9 9 9 9 9 9 9 10 10 10 10 10 11 11 11
3 3 3 2 4 5 5 5 5 5 6 7 8 8 8 9 9 9 9 9 9 9 9 10 10 10 10 10 10 10 10 10 10 10 11 11 11 11 11 12 12 12 12
4 4 4 3 4 4 5 5 6 6 6 7 8 8 9 9 9 9 10 10 10 11 10 10 10 10 10 11 11 11 12 12 11 12 12 11 11 12 12 12 12 12 13
4 4 4 3 4 5 5 5 6 7 7 7 7 8 8 9 9 9 9 10 10 11 11 11 11 12 12 11 12 12 13 13 12 12 12 13 13 13 13 13 13 13 14
6 5 5 6 6 6 6 6 7 7 7 8 8 9 9 10 9 10 10 11 11 11 12 12 12 13 12 12 12 12 12 12 12 12 13 14 14 14 14 14 14 15 15
7 7 7 7 7 7 6 7 7 7 7 7 8 9 9 10 10 10 11 11 11 12 13 13 13 13 13 13 13 12 13 13 13 13 14 14 14 15 15 15 15 16 17
8 9 8 8 8 7 7 8 8 8 8 8 8 8 8 9 9 10 10 11 11 11 12 12 12 12 12 12 13 13 14 14 15 15 14 15 15 15 15 16 16 17 17
10 10 10 10 9 9 8 8 8 8 9 8 8 8 8 9 9 9 10 11 11 11 11 12 13 13 14 14 14 14 14 15 15 15 15 15 15 16 16 16 17 17 17
11 11 11 11 11 11 10 10 10 9 9 9 9 9 9 10 10 11 11 12 12 12 13 13 13 14 14 14 14 14 15 15 16 16 16 16 17 17 18 18 18 18 19
12 12 12 12 12 13 12 12 11 11 10 10 10 11 11 11 12 12 13 13 13 13 14 14 14 14 14 14 14 15 15 16 16 16 17 17 18 18 19 20 20 20 21
14 13 13 13 14 13 13 13 13 12 12 12 12 13 13 13 14 14 14 15 14 14 14 15 15 15 14 15 15 15 16 16 17 18 18 18 19 19 20 21 21 22 22
16 15 14 15 15 14 14 14 14 14 14 14 14 14 15 15 15 15 15 16 16 16 16 16 16 16 16 16 16 17 17 17 18 19 19 19 20 21 21 22 22 22 23
17 17 16 16 16 16 16 16 16 16 16 16 16 16 17 17 17 17 17 17 18 18 18 18 18 17 18 18 18 18 19 20 20 20 21 21 22 22 23 23 23 23 23
18 18 19 19 18 18 18 18 18 18 18 18 18 18 18 19 18 19 19 20 20 20 20 20 20 20 19 20 20 20 21 22 22 22 23 23 24 24 24 24 25 24 24
20 21 21 20 20 20 20 20 20 20 20 20 20 20 20 20 19 20 21 21 22 22 22 22 22 22 22 22 22 22 23 23 24 24 25 25 25 25 25 25 26 25 25
22 23 22 22 22 22 21 22 22 22 22 22 22 22 23 22 22 22 22 23 23 23 24 24 23 24 24 24 25 25 25 25 26 26 26 26 26 26 27 27 26 25 25
24 24 24 24 24 24 24 24 24 24 24 24 24 24 24 25 24 24 24 24 25 25 25 25 26 26 26 26 26 27 27 28 28 28 27 27 27 27 27 27 26 26 26
26 26 25 25 25 25 25 25 25 25 26 25 25 26 26 26 27 26 26 26 27 27 28 28 28 28 27 27 27 28 29 29 29 29 29 29 28 27 27 27 27 27 27
27 26 26 27 27 27 27 27 27 27 27 28 27 27 27 28 28 28 28 28 29 29 29 29 29 29 29 30 30 30 31 31 31 31 31 30 29 29 29 29 29 28 28
28 28 28 29 28 28 29 28 28 28 28 28 28 28 29 29 29 30 31 31 31 31 31 31 31 31 32 32 33 32 32 32 32 32 31 30 30 29 29 30 30 29 29
30 30 30 30 29 28 28 29 29 30 29 29 29 29 30 31 31 32 32 32 32 32 32 32 33 33 33 33 34 34 34 34 34 33 32 31 30 30 29 29 29 30 29
32 32 32 31 30 29 29 30 31 31 31 31 31 31 31 31 32 32 33 34 34 34 34 34 35 35 35 35 35 35 34 34 34 33 33 33 32 31 31 30 30 30 30

GEFSMA_500_meanwind_234.txt.gz
Wind_Speed
5 5 5 5 5 6 6 5 5 5 6 6 6 6 6 5 5 5 4 4 5 5 5 5 6 6 5 4 4 4 4 5 4 4 4 5 5 5 5 6 6 6 7
4 4 5 6 6 6 6 6 6 5 6 6 7 7 7 6 6 6 6 5 6 6 6 7 7 7 6 6 5 6 5 6 5 5 5 6 6 6 6 7 7 7 8
2 3 3 5 5 5 6 6 6 6 6 7 7 7 7 7 7 7 7 7 7 7 7 8 8 8 7 7 7 7 7 7 7 7 7 7 7 7 8 8 8 8 9
2 1 2 3 4 4 5 6 6 6 6 7 7 7 8 8 8 8 7 7 7 8 8 8 8 8 8 8 9 9 9 8 8 8 8 8 8 9 9 9 9 9 9
2 1 2 2 3 3 4 5 6 7 7 7 7 7 8 8 8 8 8 7 8 9 9 9 9 8 8 9 9 9 9 9 9 10 9 10 10 10 9 9 10 10 10
1 1 1 1 2 3 4 4 5 6 7 8 8 8 8 8 9 8 8 8 9 9 10 9 9 9 9 9 10 10 10 11 11 11 11 11 11 10 9 9 9 10 10
2 1 1 1 2 2 3 3 4 6 7 7 8 8 8 9 9 9 8 9 9 9 10 10 10 10 11 10 10 11 11 11 11 12 12 11 10 10 10 10 11 11 11
3 3 2 1 2 2 3 4 4 5 6 7 7 8 8 9 9 9 9 9 9 10 11 11 12 12 13 13 13 13 12 12 12 12 11 11 11 11 12 12 13 13 13
3 3 3 2 2 3 4 5 5 6 6 7 7 8 8 9 9 9 10 10 10 10 11 11 12 13 13 13 13 13 13 12 13 13 13 13 13 13 13 14 14 15 15
4 3 3 3 4 4 5 5 6 6 6 7 7 8 8 8 8 8 9 10 10 10 11 11 11 13 13 13 13 12 12 13 13 13 14 14 15 15 15 15 15 15 16
5 5 5 5 5 5 5 5 6 6 7 6 7 8 8 8 8 8 9 9 9 10 11 11 12 12 12 12 12 13 13 14 14 14 14 14 15 16 16 16 16 16 16
6 6 5 6 6 6 6 6 6 7 7 7 7 7 8 8 9 10 10 11 11 11 11 11 12 12 12 13 13 13 14 14 14 15 15 15 15 16 16 16 16 16 16
6 6 7 7 7 8 8 7 7 7 7 7 7 8 9 9 10 11 11 12 12 12 12 12 13 13 14 14 14 14 14 14 15 16 16 16 16 16 17 17 17 18 18
7 7 7 8 8 9 9 8 7 8 8 8 9 9 10 10 11 11 11 12 12 13 13 14 14 14 15 15 15 15 15 15 15 16 16 17 17 17 18 18 18 19 19
8 8 8 9 9 10 10 10 10 10 11 10 10 10 11 11 12 13 13 13 13 14 14 15 15 15 16 16 16 16 16 17 16 17 17 18 18 18 18 19 20 20 21
9 10 10 10 11 11 12 12 12 12 12 12 11 12 12 13 13 13 14 15 15 15 15 16 16 17 17 17 17 18 19 18 19 18 18 18 19 19 20 20 21 22 22
12 12 13 13 13 13 13 13 13 13 13 13 13 13 13 14 14 14 15 16 16 16 16 17 17 18 19 19 18 19 20 21 21 20 20 21 21 21 21 21 21 22 23
14 15 15 15 15 15 15 15 15 15 15 15 15 15 15 16 16 16 16 16 17 18 18 19 19 19 20 20 20 21 21 21 22 23 23 23 23 23 23 23 23 23 23
17 17 17 17 17 18 18 17 17 17 17 17 17 17 18 18 18 18 18 18 19 19 20 20 20 21 22 21 21 21 22 22 23 23 24 25 25 26 26 26 25 25 25
19 19 20 20 20 20 20 20 20 19 19 19 19 20 20 20 20 20 20 20 20 20 21 21 22 23 24 24 24 24 24 25 25 25 25 26 27 27 27 26 27 27 27
22 22 22 22 22 22 22 22 23 22 22 22 21 22 22 22 22 22 22 22 22 22 22 22 23 23 24 25 26 26 27 27 27 28 28 28 29 29 29 28 28 28 28
23 23 23 23 24 24 24 24 24 24 24 23 23 23 23 23 24 24 24 24 24 24 24 25 25 25 26 26 27 27 28 28 29 29 29 30 30 30 30 30 30 29 29
25 24 24 25 25 25 26 25 25 26 25 25 25 25 25 25 25 25 26 26 26 26 26 27 27 27 28 29 29 30 30 30 30 30 30 30 30 30 30 31 31 31 30
27 27 26 26 27 27 27 27 28 27 27 27 27 27 27 26 26 26 26 27 28 29 29 29 29 29 30 30 31 31 31 32 32 32 32 31 31 31 31 31 31 31 31
30 29 28 28 28 29 29 29 30 29 29 28 28 28 28 28 28 28 29 29 30 30 31 31 31 32 32 32 32 32 33 33 33 32 33 33 32 32 32 32 32 32 32
30 30 31 30 30 30 31 30 31 30 30 30 29 30 31 30 30 30 31 31 31 32 32 33 33 34 33 33 33 33 34 34 34 34 33 34 34 34 34 33 34 33 32

GEFSMA_500_meanwind_240.txt.gz
Wind_Speed
5 5 6 6 6 6 5 5 5 5 6 6 7 6 6 6 6 6 6 6 6 6 6 7 7 7 6 6 5 5 5 5 4 4 5 5 5 5 5 5 5 6 6
3 4 4 5 5 5 5 6 5 6 6 7 8 7 7 7 6 6 7 7 6 6 7 7 7 7 8 8 7 7 6 6 6 6 6 6 7 7 7 7 7 7 7
3 3 3 4 4 4 5 6 6 6 6 7 8 8 8 8 8 8 8 8 8 8 7 7 8 8 8 9 8 8 8 8 7 7 7 7 8 8 8 7 8 8 8
3 2 3 3 3 3 4 5 6 6 6 7 7 7 8 9 9 9 9 9 9 9 9 9 8 9 9 9 9 9 8 9 9 8 9 9 9 9 9 8 9 9 8
3 2 3 3 3 4 4 6 6 7 7 8 8 8 9 9 9 10 10 11 11 10 10 10 10 10 10 10 10 10 9 9 10 10 10 10 10 10 10 9 9 9 9
2 3 3 4 4 4 5 5 6 7 7 8 8 9 10 10 10 11 10 11 11 11 11 11 10 10 10 11 11 11 11 11 11 11 12 12 11 11 11 11 10 10 11
0 2 3 4 4 4 5 5 5 6 7 8 9 10 10 11 11 11 11 11 11 12 12 12 12 12 12 12 12 13 13 12 12 13 12 12 12 12 11 12 12 11 11
1 2 2 3 3 4 5 6 6 7 8 9 10 10 11 11 12 12 12 12 12 12 12 12 13 13 13 13 13 13 13 13 14 13 13 13 13 13 13 13 13 12 13
2 2 3 3 4 5 6 6 8 8 8 9 9 10 10 11 12 12 12 13 12 12 12 12 12 13 14 14 14 14 14 14 13 13 13 14 14 13 13 14 14 14 15
5 4 4 5 5 6 6 7 7 8 8 8 9 10 10 10 11 11 12 13 13 13 13 12 12 13 13 14 14 14 14 14 14 15 15 15 15 15 15 16 16 16 16
6 6 6 6 6 7 8 8 8 9 9 10 10 10 10 10 11 11 11 12 13 13 14 13 12 12 12 12 13 14 14 14 15 15 16 16 16 16 16 16 16 17 17
7 7 7 8 8 8 9 9 9 11 11 12 11 11 11 11 11 12 12 12 13 13 13 13 13 13 13 13 14 14 15 16 16 16 16 17 17 17 17 17 18 19 19
8 8 9 9 10 10 10 11 11 12 12 13 12 12 12 12 13 13 13 13 13 13 14 14 14 14 15 14 15 15 16 16 17 17 18 18 18 18 19 19 19 20 20
10 10 11 11 11 11 12 12 12 12 12 13 13 13 13 13 13 14 14 14 14 14 14 15 16 16 16 16 16 17 17 18 18 19 19 19 19 20 20 20 20 20 21
11 11 11 12 12 12 12 12 12 12 13 13 13 13 14 14 15 15 15 15 15 16 16 17 17 17 18 18 18 18 18 19 19 20 20 20 21 21 22 22 22 22 22
13 12 12 13 13 13 13 13 13 14 14 14 14 14 15 15 15 16 16 16 17 17 18 19 19 19 19 19 19 19 19 19 20 21 22 22 23 23 23 23 23 23 23
15 15 14 14 14 15 15 15 15 15 15 16 16 16 17 17 18 18 18 18 18 19 19 20 20 21 21 21 21 21 21 20 21 22 22 23 24 24 25 25 25 25 25
17 17 17 17 17 17 17 17 18 18 18 18 18 18 19 20 20 20 20 20 21 21 21 21 22 22 23 23 23 23 23 23 23 23 23 24 25 25 25 26 26 26 26
18 18 18 18 19 19 19 20 20 20 20 20 20 20 21 21 22 23 23 23 23 23 23 23 23 24 24 25 25 26 26 26 26 25 25 26 26 26 26 26 27 27 27
20 19 20 20 21 21 21 22 22 22 22 22 22 22 23 23 23 24 24 25 25 25 25 25 25 26 27 27 27 27 28 28 28 28 28 28 28 27 27 27 28 28 28
24 23 23 22 23 23 23 24 23 23 23 24 25 25 25 25 26 26 26 27 26 26 26 26 27 27 28 29 29 29 30 30 30 30 30 31 30 30 29 29 30 30 30
24 24 23 23 24 24 24 25 25 25 25 26 26 27 27 28 28 28 27 28 28 28 27 27 28 29 29 29 29 31 31 32 32 32 31 32 32 31 32 31 31 32 32
24 25 25 25 25 25 24 25 26 27 27 28 28 28 29 29 30 30 29 29 28 28 28 29 29 30 30 30 30 30 31 31 32 32 33 33 33 33 33 33 33 33 33
27 27 27 27 26 26 26 27 28 29 29 29 29 29 30 30 30 31 32 31 31 30 30 30 30 31 32 32 32 32 33 32 33 33 34 33 33 34 34 34 34 34 33
28 29 29 29 29 28 29 30 31 31 32 32 32 32 32 32 32 32 32 32 32 31 31 31 31 32 34 34 34 34 34 34 34 34 34 34 34 34 34 34 34 34 34
30 31 31 31 30 30 31 31 32 33 33 33 33 33 34 34 34 33 32 32 32 32 33 33 33 33 34 35 35 35 35 35 35 34 35 35 35 35 34 34 34 34 35

GEFSMA_500_meanwind_246.txt.gz
Wind_Speed
6 6 6 7 7 7 6 6 5 5 6 6 6 6 7 6 6 6 6 6 6 7 7 7 6 6 6 6 6 6 6 6 6 5 5 5 5 5 5 5 5 5 5
6 6 6 6 6 6 6 6 5 5 6 6 6 7 7 7 7 7 7 7 7 7 8 8 8 8 8 8 8 8 7 7 6 6 6 6 6 6 6 6 7 7 7
5 5 5 5 5 5 5 5 5 6 6 7 7 7 7 8 9 8 8 9 9 9 9 9 9 9 10 10 9 8 8 7 7 7 7 7 7 7 8 8 7 7 7
4 4 4 4 4 5 5 6 6 6 6 8 8 8 8 9 10 10 10 10 10 10 10 10 10 10 10 10 9 8 8 8 8 8 8 8 8 8 9 9 8 9 9
4 3 4 4 4 4 5 5 6 6 6 7 8 9 9 9 9 10 11 11 11 11 12 11 11 11 11 11 10 10 10 10 10 10 10 10 10 9 10 10 9 10 9
3 4 4 5 5 5 5 6 6 6 7 7 7 8 9 10 10 10 11 11 12 12 12 12 12 11 11 11 12 12 11 12 12 12 11 11 11 11 10 10 10 10 10
2 3 4 5 5 5 5 6 6 6 7 7 7 8 8 10 10 11 11 11 12 12 12 13 13 13 13 12 12 12 12 13 13 13 12 12 12 11 11 11 11 11 11
2 3 4 5 6 6 6 7 7 8 8 8 9 9 9 10 11 11 11 11 12 13 13 14 13 14 14 14 15 14 14 14 13 13 13 13 13 13 12 12 12 12 12
3 4 5 6 6 7 7 7 8 8 9 9 10 10 10 11 11 11 12 13 13 14 14 13 13 14 14 15 15 15 14 14 14 14 14 14 14 14 14 13 13 13 13
4 5 6 7 8 8 8 9 9 10 10 10 11 11 11 12 11 11 12 13 14 14 14 14 14 14 14 14 15 15 15 15 15 15 15 15 14 15 15 15 15 14 14
6 6 7 8 9 9 10 10 10 11 12 12 12 12 13 13 13 13 13 12 13 13 14 14 14 14 14 14 15 15 15 15 15 15 16 16 16 16 16 16 16 16 16
8 8 9 9 10 11 11 11 11 12 12 13 13 13 14 14 14 14 13 13 13 13 14 14 15 15 15 15 16 16 16 16 16 16 16 16 17 17 17 17 17 17 18
10 10 10 11 12 12 12 12 13 14 13 14 14 15 15 15 16 16 15 15 15 15 15 15 16 16 16 16 16 17 17 17 17 17 17 17 18 18 19 19 19 19 19
11 12 13 13 13 13 14 14 14 14 15 15 16 17 16 16 16 16 16 16 16 16 16 16 17 17 17 18 18 18 18 18 18 18 18 18 18 19 20 21 21 21 21
14 14 14 15 15 15 15 15 16 16 17 17 18 18 18 17 17 17 16 16 17 17 17 18 18 18 19 19 19 19 19 20 19 19 19 19 20 20 21 21 22 22 23
15 15 16 17 17 18 17 17 18 18 19 19 19 18 18 18 18 18 18 18 18 19 19 19 19 20 20 20 20 21 21 21 21 21 21 21 22 22 22 22 23 24 24
17 17 18 18 18 18 18 18 18 18 18 18 19 20 20 20 19 19 19 19 20 20 20 21 21 22 22 22 23 23 22 23 23 23 23 23 24 24 24 24 24 24 24
18 18 18 18 19 19 19 18 18 19 20 20 20 21 21 21 21 21 21 21 22 22 22 23 23 24 24 24 24 24 25 25 25 25 25 25 26 25 26 27 26 25 25
19 19 19 19 19 20 20 20 20 20 21 21 21 22 23 23 23 23 23 23 23 23 24 24 25 25 25 26 26 26 26 27 27 27 27 27 27 27 27 28 28 28 28
21 22 21 21 20 20 21 21 21 22 22 22 22 22 23 24 24 24 25 25 25 25 25 26 26 27 27 27 28 28 28 28 29 29 29 29 29 30 29 29 30 29 29
22 22 22 23 23 23 22 23 23 23 23 23 24 24 24 25 25 26 26 27 28 28 28 28 28 28 28 29 29 29 30 30 31 31 31 31 32 31 31 31 31 30 30
24 24 24 25 25 25 25 25 25 25 25 25 25 26 26 27 27 28 29 30 30 30 30 30 29 29 30 31 31 31 32 32 32 32 32 32 32 33 33 32 32 31 31
25 26 26 26 27 27 27 27 27 27 27 27 27 28 28 28 29 30 31 32 31 31 31 31 31 30 31 33 33 33 32 32 32 33 33 33 33 33 33 32 32 32 32
28 27 28 28 29 29 29 29 30 29 29 29 29 29 30 30 30 31 32 32 32 33 33 32 32 32 33 34 34 35 34 33 33 33 34 34 34 34 34 33 32 32 32
30 30 30 30 30 30 31 31 32 32 32 31 31 31 31 31 31 31 32 33 33 33 33 34 34 33 33 33 34 34 34 34 34 34 35 35 34 34 34 34 33 33 33
31 32 32 32 32 32 32 32 33 33 32 32 32 32 32 32 32 32 33 34 34 34 34 34 33 33 33 33 33 34 35 34 34 34 34 35 35 35 34 34 34 34 33